Weather in Poselok sovkhoza im. Vorovskogo

Russia / Republic of Tatarstan     55°41′57″N   53°09′38″E
temp.,
°C
wind,
m/s
gust,
m/s
humid.,
%
clouds,
%
prec.,
mm/h
press.,
hPa
HPBL,
m
24 may, tue
tue2400:00+3sw228530 0.0 100220
03:00+4wsw2487100 0.0 1003111
06:00+6sw357611 0.0 1004473
09:00+10sw45555 0.0 10051222
12:00+13ssw46455 0.0 10061798
15:00+14s564281 0.0 10062190
18:00+12ssw356347 0.1 1006129
21:00+6nnw379288 0.1 1008173
25 may, wed
wed2500:00+5ene2287100 0.0 100817
03:00+5e008994 0.0 100710
06:00+8ese1177100 0.0 1007222
09:00+13se2365100 0.0 1006818
12:00+13ssw5766100 1.3 10051280
15:00+7w898699 2.1 1008614
18:00+7w577699 0.0 10101010
21:00+6w59797 0.2 1010371
26 may, thu
thu2600:00+3sw38895 0.0 1011164
03:00+2sw36925 0.0 1012125
06:00+6wsw6108349 0.0 1012643
09:00+8w687592 0.1 1013970
12:00+10wsw7964100 0.1 10131566
15:00+10sw686485 0.1 10141214
18:00+10ssw486890 0.3 1013477
21:00+7s398159 0.4 1013196
27 may, fri
fri2700:00+5s3108919 0.0 1012216
03:00+5s41285100 0.0 1011280
06:00+8s6157699 0.0 1010483
09:00+13s91565100 0.0 1009958
12:00+15s101368100 0.1 10081391
15:00+12s9158197 1.3 10071044
18:00+12s9158567 0.1 1006774
21:00+11s7148911 0.1 1006475
28 may, sat
sat2800:00+11s61393100 0.2 1005536
03:00+10ssw410959 1.4 1006313
06:00+11sw579055 0.0 1008415
09:00+12sw5684100 0.0 1009655
12:00+14sw6976100 0.0 1010979
15:00+18sw7105987 0.1 10101941
18:00+16s6116964 0.1 1010517
21:00+14s8187172 0.1 1009591